Regional Weather Roundup
Issued by NWS

Home | Current Version | Previous Version | Graphics & Text | Print | Product List | Glossary On
Versions: 1 2 3 4 5 6 7 8 9 10 11 12 13 14 15 16 17 18 19 20 21 22 23 24 25 26 27
000
ASUS45 KBOU 210807
RWRCO

WEATHER ROUNDUP FOR COLORADO
NATIONAL WEATHER SERVICE DENVER/BOULDER CO
200 AM MDT SAT OCT 21 2017

NOTE: "FAIR" INDICATES FEW OR NO CLOUDS BELOW 12000 FEET WITH NO
SIGNIFICANT WEATHER AND/OR OBSTRUCTIONS TO VISIBILITY.

COZ001>005-013-030-031-210900-
...NORTHWEST COLORADO...

CITY           SKY/WX    TMP DP  RH WIND       PRES   REMARKS
CRAIG          CLOUDY    32  29  88 W3        29.98R
HAYDEN         CLOUDY    30  29  96 W6        29.99R WCI  24
MEEKER         MOCLDY    34  32  92 NW5       29.98R WCI  30
RABBIT EARS PA FOG       19  19 100 MISG      29.92R VSB 1
STEAMBOAT SPGS CLOUDY    30  29  97 SW3       29.96R
WALDEN         NOT AVBL
$$

COZ006>008-011-210900-
...WEST CENTRAL VALLEYS...

CITY           SKY/WX    TMP DP  RH WIND       PRES   REMARKS
GRAND JUNCTION FAIR      43  17  35 NW7       29.94R
MONTROSE       CLOUDY    47  20  34 NW18      29.95R
EAGLE          LGT RAIN  37  33  85 E5        29.98R
RIFLE          MOCLDY    41  31  67 NW10      29.97R
DELTA          FAIR      51  20  29 W15       29.91R
NUCLA          MOCLDY    48  14  25 NW9       29.97R
$$

COZ017>023-064>068-210900-
...SOUTHWEST COLORADO...

CITY           SKY/WX    TMP DP  RH WIND       PRES   REMARKS
DURANGO        CLOUDY    51  30  44 W9        29.87R
CORTEZ         CLOUDY    49  28  44 NW9       29.92R
PAGOSA SPRINGS FAIR      49  26  39 W12G20    29.90R
TELLURIDE      LGT SNOW  35  32  90 W12G21    30.01R WCI  26
WOLF CREEK PAS CLOUDY    30  23  74 SW18G36   30.04R WCI  18
$$

COZ009-010-012-014-032>034-037-058>063-210900-
...CENTRAL COLORADO...

CITY           SKY/WX    TMP DP  RH WIND       PRES   REMARKS
ASPEN          LGT SNOW  32  31  96 N6        29.97R FOG     WCI  26
BUENA VISTA    LGT RAIN  40  36  83 N3        29.80F
COPPER MTN     CLOUDY    27  21  80 MISG      29.93S
BERTHOUD PASS  CLOUDY    16   5  62 MISG      29.87F
COTTONWOOD PAS CLOUDY    41  34  75 W16G32    29.83F
GUNNISON       LGT RAIN  39  35  86 W12G17    29.90R
KREMMLING      MOCLDY    36  32  87 SW3       29.96R
LEADVILLE      SNOW      27  26  96 N15G24    29.91R VSB 1/2 WCI  15
MONARCH PASS   CLOUDY    28  27  93 MISG      30.00S
SALIDA         CLOUDY    44  38  79 SW10      29.90R
SUNLIGHT       CLOUDY    21  19  93 MISG      30.00R
WILKERSON PASS LGT SNOW  32  30  93 SW24G36   29.86F VSB 3/4 WCI  19
$$

COZ069>075-210900-
...SAN LUIS VALLEY/SANGRE DE CRISTO MOUNTAINS...

CITY           SKY/WX    TMP DP  RH WIND       PRES   REMARKS
ALAMOSA        FAIR      47  29  49 W13       29.81R
DEL NORTE      FAIR      47  28  48 NW5       29.83R
LA VETA PASS   FAIR      39  27  60 S39G61    29.93S
SAGUACHE       RAIN      37  36  93 NW20      29.90R
$$

COZ035-036-038>040-210900-
...NORTHERN COLORADO FRONT RANGE...

CITY           SKY/WX    TMP DP  RH WIND       PRES   REMARKS
DENVER INTL AP CLOUDY    50  33  52 NW10      29.66R
DMNS CITY PARK   N/A     55  28  35 W13G24    29.64R
AURORA         MOCLDY    50  35  55 N15G21    29.67R
FRONT RANGE AP MOCLDY    50  36  57 N7G20     29.68R
ERIE MUNI ARPT CLOUDY    55  30  39 NW9G21    29.67R
BOULDER MUN AP CLOUDY    52  30  43 CALM      29.61R
CENTENNIAL     CLOUDY    57  27  31 NW12G23   29.67R
BROOMFIELD     CLOUDY    52  28  40 W14G29    29.63S
FORT COLLINS   CLOUDY    53  33  46 N3        29.61R
LONGMONT       CLOUDY    59  29  32 W9G24     29.63S
$$

COZ041-046-047-076>085-087-088-210900-
...PIKES PEAK/PALMER DIVIDE AND SOUTHERN FOOTHILLS...

CITY           SKY/WX    TMP DP  RH WIND       PRES   REMARKS
COLO. SPRINGS  MOCLDY    58  28  32 SW14G20   29.62R
A. F. ACADEMY  FAIR      58  26  30 NW6       29.63R
SCHRIEVER AFB  FAIR      56  26  31 SW14      29.63R
CHEYENNE MTN   MOCLDY    56  26  32 CALM      29.59R
ELLICOTT         N/A    N/A N/A N/A SW14      29.63R
FALCON         FAIR      54  24  31 S14       29.66S
FORT CARSON    FAIR      61  29  29 NW9       29.60R
LIMON          FAIR      54  32  43 N24G33    29.61R
MONUMENT HILL  FAIR      52  27  37 W15       29.69R
CANON CITY     FAIR      59  34  38 W23       29.64R
WALSENBURG     FAIR      63  30  29 W16G28    29.70R
TRINIDAD       FAIR      62  26  25 SW14      29.68S
$$

COZ042>045-048>051-090-091-210900-
...NORTHEAST COLORADO...

CITY           SKY/WX    TMP DP  RH WIND       PRES   REMARKS
GREELEY ARPT   FAIR      50  29  44 NW24G32   29.61R
AKRON          FAIR      48  32  53 NW22      29.61R
BURLINGTON     FAIR      57  32  38 SW13G22   29.54R
WRAY           NOT AVBL
YUMA           FAIR      50  23  34 NW18G29   29.57R
STERLING       FAIR      50  32  50 NW32G43   29.57R
HOLYOKE        FAIR      59  37  44 NW14G33   29.52R
FORT MORGAN    FAIR      48  30  49 N22G29    29.61R
$$

COZ086-089-092>099-210900-
...SOUTHEAST COLORADO...

CITY           SKY/WX    TMP DP  RH WIND       PRES   REMARKS
PUEBLO         FAIR      66  30  26 W14       29.56S
LA JUNTA       FAIR      60  34  37 SW10      29.57R
LAMAR          FAIR      65  40  39 SW16      29.52S
SPRINGFIELD      N/A     56  44  64 SW7       29.65R
$$




USA.gov is the U.S. government's official web portal to all federal, state and local government web resources and services.